Location: Congrier
(47.8099°N, 1.1170°W)
Time: 14:34:09
(UTC+00:00)

YAOGAN 1 - Pass Details

Date: 28 January 2023
Orbit: 616 x 618 km, 97.8° (Epoch: 25 March)

Event Time Altitude Azimuth Distance (km) Brightness Sun altitude
Rises 18:03:03 0° 141° (SE) 2,882 5.7 -11.0°
Reaches altitude 10° 18:05:21 10° 132° (SE) 1,982 4.8 -11.4°
Maximum altitude 18:09:15 34° 68° (ENE) 1,022 3.1 -12.0°
Drops below altitude 10° 18:13:11 10° 3° (N) 1,997 5.0 -12.6°
Sets 18:15:31 0° 355° (N) 2,908 5.9 -13.0°
